(150243) = 1999 CH133 = 2001 UV63

Discovered at Kitt Peak on 1999-02-07 by Spacewatch.

Orbit

Orbit type: Main Belt

Note: WebGL enabled browser required.

epoch2024-03-31.0
epoch JD2460400.5
perihelion date2024-01-17.15178
perihelion JD2460326.65178
argument of perihelion (°)232.96213
ascending node (°)332.99791
inclination (°)3.23524
eccentricity0.0861536
perihelion distance (AU)2.3244008
Tisserand w.r.t. Jupiter3.4
ΔV w.r.t. Earth (km/sec)9.6
semimajor axis (AU)2.5435355
mean anomaly (°)17.94267
mean daily motion (°/day)0.24296690
aphelion distance (AU)2.763
period (years)4.06
P-vector [x]-0.89852197
P-vector [y]-0.38266300
P-vector [z]-0.21500534
Q-vector [x]0.43818002
Q-vector [y]-0.81060113
Q-vector [z]-0.38848948
absolute magnitude16.16
phase slope0.15
uncertainty0
referenceMPEC 2024-E23
observations used622
oppositions15
arc length (days)9095
first opposition used1999
last opposition used2024
residual rms (arc-secs)0.83
perturbers coarse indicatorM-v
perturbers precise indicator003Ek
first observation date used1999-02-07.0
last observation date used2024-01-02.0
computer nameMPCLINUX
JD of orbit computation2456671.008933
perihelion JD uncertainty (days)7.1124E-04
argument of perihelion uncertainty (°)1.6289E-04
ascending node uncertainty (°)8.1662E-05
inclination uncertainty (°)7.4443E-06
eccentricity uncertainty 2.8964E-07
perihelion distance uncertainty (AU)7.4973E-07
Minimum Orbit Intersection Distances (in AU)
for orbit epoch: 2460400.5, reference: E2024-E23
Mercury1.88383
Venus1.60667
Earth1.32208
Mars0.6984
Jupiter2.20349
Saturn6.38878
Uranus16.0511
Neptune27.0706

Observations

642 total observations over interval: 1999 02 07.21923 – 2024 01 02.660307
These data are available for download (format description).

Date (UT) J2000 RA J2000 Dec Magn Location Ref
1999 02 07.21923 10 08 00.09 +12 20 10.1 19.2 V 691 – Steward Observatory, Kitt Peak-Spacewatch MPS 4192
1999 02 07.24066 10 07 58.91 +12 20 14.4 19.1 V 691 – Steward Observatory, Kitt Peak-Spacewatch MPS 4192
1999 02 07.26553 10 07 57.50 +12 20 19.9 19.2 V 691 – Steward Observatory, Kitt Peak-Spacewatch MPS 4192
1999 02 11.38803 10 04 06.63 +12 35 06.3 19.6 V 691 – Steward Observatory, Kitt Peak-Spacewatch MPS 4192
1999 02 11.40924 10 04 05.39 +12 35 11.2 19.5 V 691 – Steward Observatory, Kitt Peak-Spacewatch MPS 4192
1999 02 11.43053 10 04 04.14 +12 35 15.0 19.5 V 691 – Steward Observatory, Kitt Peak-Spacewatch MPS 4192
1999 02 12.19029 10 03 21.06 +12 38 01.7 18.7 R 699 – Lowell Observatory-LONEOS MPS 58722
1999 02 12.21585 10 03 19.66 +12 38 08.8   699 – Lowell Observatory-LONEOS MPS 58722
1999 02 12.24139 10 03 18.15 +12 38 13.0   699 – Lowell Observatory-LONEOS MPS 58722
1999 02 18.40016 09 57 16.93 +13 00 44.1 19.7 V 691 – Steward Observatory, Kitt Peak-Spacewatch MPS 79545
1999 02 18.42791 09 57 15.19 +13 00 49.9 19.6 V 691 – Steward Observatory, Kitt Peak-Spacewatch MPS 79545
1999 02 18.45207 09 57 13.72 +13 00 54.9 19.7 V 691 – Steward Observatory, Kitt Peak-Spacewatch MPS 79545
1999 03 09.25526 09 40 18.58 +13 57 51.2 19.6 V 691 – Steward Observatory, Kitt Peak-Spacewatch MPS 16452
1999 03 09.27713 09 40 17.56 +13 57 54.0 20.0 V 691 – Steward Observatory, Kitt Peak-Spacewatch MPS 16452
1999 03 09.29967 09 40 16.50 +13 57 56.9 19.8 V 691 – Steward Observatory, Kitt Peak-Spacewatch MPS 16452
1999 03 15.20963 09 36 16.24 +14 08 44.0 20.1 V 691 – Steward Observatory, Kitt Peak-Spacewatch MPS 16452
1999 03 15.23129 09 36 15.41 +14 08 46.1 19.7 V 691 – Steward Observatory, Kitt Peak-Spacewatch MPS 16452
1999 03 15.25346 09 36 14.56 +14 08 48.0 19.8 V 691 – Steward Observatory, Kitt Peak-Spacewatch MPS 16452
2001 09 20.39846 02 25 17.36 +18 16 10.7 20.0   704 – Lincoln Laboratory ETS, New Mexico MPS 42998
2001 09 20.41253 02 25 16.94 +18 16 10.8 20.0   704 – Lincoln Laboratory ETS, New Mexico MPS 42998
2001 09 20.42660 02 25 16.56 +18 16 10.9 20.1   704 – Lincoln Laboratory ETS, New Mexico MPS 42998
2001 09 20.44068 02 25 16.23 +18 16 10.5 20.4   704 – Lincoln Laboratory ETS, New Mexico MPS 42998
2001 10 18.23566 02 05 19.98 +17 15 25.1 20.0   704 – Lincoln Laboratory ETS, New Mexico MPS 41109
2001 10 18.25100 02 05 18.99 +17 15 20.7 20.2   704 – Lincoln Laboratory ETS, New Mexico MPS 41109
2001 10 18.25158 02 05 18.97 +17 15 20.9 19.7   704 – Lincoln Laboratory ETS, New Mexico MPS 41109
2001 10 18.26693 02 05 18.08 +17 15 17.5 20.2   704 – Lincoln Laboratory ETS, New Mexico MPS 41109
2001 10 18.26751 02 05 18.08 +17 15 17.1 20.3   704 – Lincoln Laboratory ETS, New Mexico MPS 41109
2001 10 18.28283 02 05 17.10 +17 15 14.3 20.0   704 – Lincoln Laboratory ETS, New Mexico MPS 41109
2001 10 19.37787 02 04 15.63 +17 10 56.1 20.0   644 – Palomar Mountain/NEAT MPS 41109
2001 10 19.39903 02 04 14.43 +17 10 50.9 20.5   644 – Palomar Mountain/NEAT MPS 41109
2001 10 19.42014 02 04 13.20 +17 10 45.6 21.0   644 – Palomar Mountain/NEAT MPS 41109
2001 10 21.26718 02 02 28.73 +17 03 12.2 20.0   704 – Lincoln Laboratory ETS, New Mexico MPS 41109
2001 10 21.28464 02 02 27.71 +17 03 06.5 19.6   704 – Lincoln Laboratory ETS, New Mexico MPS 41109
2001 10 21.30123 02 02 26.79 +17 03 03.1 20.0   704 – Lincoln Laboratory ETS, New Mexico MPS 41109
2001 10 21.31766 02 02 25.79 +17 02 59.0 19.8   704 – Lincoln Laboratory ETS, New Mexico MPS 41109
2001 10 21.33429 02 02 24.83 +17 02 54.7 20.0   704 – Lincoln Laboratory ETS, New Mexico MPS 41109
2003 01 27.31398 09 43 50.81 +15 14 19.1 19.4   704 – Lincoln Laboratory ETS, New Mexico MPS 71137
2003 01 27.32935 09 43 49.97 +15 14 21.2 19.3   704 – Lincoln Laboratory ETS, New Mexico MPS 71137
2003 01 27.34469 09 43 49.10 +15 14 23.9 19.2   704 – Lincoln Laboratory ETS, New Mexico MPS 71137
2003 01 27.36016 09 43 48.28 +15 14 27.7 19.6   704 – Lincoln Laboratory ETS, New Mexico MPS 71137
2003 01 27.37573 09 43 47.52 +15 14 30.1 19.9   704 – Lincoln Laboratory ETS, New Mexico MPS 71137
2003 01 28.25068 09 43 01.78 +15 17 18.0 20.0 V 291 – LPL/Spacewatch II MPS 71137
2003 01 28.27645 09 43 00.40 +15 17 23.2 20.0 V 291 – LPL/Spacewatch II MPS 71137
2003 01 28.30429 09 42 58.82 +15 17 28.8 19.9 V 291 – LPL/Spacewatch II MPS 71137
2003 01 30.38128 09 41 06.51 +15 24 14.5 18.9 R 699 – Lowell Observatory-LONEOS MPS 71137
2003 01 30.39367 09 41 05.74 +15 24 17.8   699 – Lowell Observatory-LONEOS MPS 71137
2003 01 30.40608 09 41 05.09 +15 24 19.8   699 – Lowell Observatory-LONEOS MPS 71137
2003 01 30.41850 09 41 04.36 +15 24 21.0   699 – Lowell Observatory-LONEOS MPS 71137
2003 02 03.29504 09 37 25.11 +15 37 23.1 19.0   704 – Lincoln Laboratory ETS, New Mexico MPS 71137
2003 02 03.31043 09 37 24.25 +15 37 25.6 19.2   704 – Lincoln Laboratory ETS, New Mexico MPS 71137
2003 02 03.34088 09 37 22.41 +15 37 32.3 19.1   704 – Lincoln Laboratory ETS, New Mexico MPS 71137
2003 02 03.35621 09 37 21.55 +15 37 35.6 19.4   704 – Lincoln Laboratory ETS, New Mexico MPS 71137
2003 02 08.32281 09 32 27.56 +15 54 25.2 19.1   704 – Lincoln Laboratory ETS, New Mexico MPS 73073
2003 02 08.33673 09 32 26.75 +15 54 28.5 19.0   704 – Lincoln Laboratory ETS, New Mexico MPS 73073
2003 02 08.35079 09 32 25.85 +15 54 30.6 19.4   704 – Lincoln Laboratory ETS, New Mexico MPS 73073
2003 02 08.36492 09 32 24.99 +15 54 34.1 19.0   704 – Lincoln Laboratory ETS, New Mexico MPS 73073
2003 02 21.15899 09 19 49.60 +16 33 49.6 19.0 R 699 – Lowell Observatory-LONEOS MPS 73696
2003 02 21.17397 09 19 48.90 +16 33 51.2   699 – Lowell Observatory-LONEOS MPS 73696
2003 02 21.18894 09 19 47.95 +16 33 55.4   699 – Lowell Observatory-LONEOS MPS 73696
2003 02 21.20393 09 19 47.05 +16 33 57.9   699 – Lowell Observatory-LONEOS MPS 73696
2003 03 06.31870 09 09 06.18 +17 00 08.1 19.9   644 – Palomar Mountain/NEAT MPS 73696
2003 03 06.32911 09 09 05.77 +17 00 08.9 19.7   644 – Palomar Mountain/NEAT MPS 73696
2003 03 06.33963 09 09 05.31 +17 00 09.7 19.5   644 – Palomar Mountain/NEAT MPS 73696
2003 03 12.19272 09 05 40.16 +17 05 36.5 19.8   644 – Palomar Mountain/NEAT MPS 73696
2003 03 12.21344 09 05 39.51 +17 05 37.3 20.0   644 – Palomar Mountain/NEAT MPS 73696
2003 03 12.23456 09 05 38.85 +17 05 38.0 20.0   644 – Palomar Mountain/NEAT MPS 73696
2003 03 23.18850 09 01 58.68 +17 04 35.2 20.7 V 291 – LPL/Spacewatch II MPS 75604
2003 03 23.21365 09 01 58.38 +17 04 34.1 20.6 V 291 – LPL/Spacewatch II MPS 75604
2003 03 23.23765 09 01 58.09 +17 04 32.9 20.7 V 291 – LPL/Spacewatch II MPS 75604
2005 09 26.39993 01 57 06.73 +15 53 32.3 20.2 V 691 – Steward Observatory, Kitt Peak-Spacewatch MPS 142437
2005 09 26.41775 01 57 05.96 +15 53 29.9 20.2 V 691 – Steward Observatory, Kitt Peak-Spacewatch MPS 142437
2005 09 26.43518 01 57 05.24 +15 53 27.6 20.4 V 691 – Steward Observatory, Kitt Peak-Spacewatch MPS 142437
2005 10 03.32684 01 51 55.69 +15 35 40.6 19.9 V 703 – Catalina Sky Survey MPS 143285
2005 10 03.33409 01 51 55.36 +15 35 38.9 19.6 V 703 – Catalina Sky Survey MPS 143285
2005 10 03.34135 01 51 55.15 +15 35 38.4 20.3 V 703 – Catalina Sky Survey MPS 143285
2005 10 03.34863 01 51 54.61 +15 35 36.3 20.5 V 703 – Catalina Sky Survey MPS 143285
2005 10 06.28810 01 49 28.18 +15 26 08.1 19.7 R 699 – Lowell Observatory-LONEOS MPS 143285
2005 10 06.31003 01 49 27.06 +15 26 02.7   699 – Lowell Observatory-LONEOS MPS 143285
2005 10 06.33197 01 49 25.90 +15 25 59.6   699 – Lowell Observatory-LONEOS MPS 143285
2005 10 06.35392 01 49 24.64 +15 25 54.1   699 – Lowell Observatory-LONEOS MPS 143285
2005 10 09.34178 01 46 48.65 +15 15 13.0 20.1 V 691 – Steward Observatory, Kitt Peak-Spacewatch MPS 143285
2005 10 09.35904 01 46 47.68 +15 15 09.2 20.0 V 691 – Steward Observatory, Kitt Peak-Spacewatch MPS 143285
2005 10 09.37642 01 46 46.73 +15 15 05.0 19.9 V 691 – Steward Observatory, Kitt Peak-Spacewatch MPS 143285
2005 10 25.14210 01 32 12.99 +14 05 47.5 19.8 V 691 – Steward Observatory, Kitt Peak-Spacewatch MPS 145771
2005 10 25.15750 01 32 12.13 +14 05 43.1 19.8 V 691 – Steward Observatory, Kitt Peak-Spacewatch MPS 145771
